Time,TemperatureF,DewpointF,PressureIn,WindDirection,WindDirectionDegrees,WindSpeedMPH,WindSpeedGustMPH,Humidity,HourlyPrecipIn,Conditions,Clouds,dailyrainin,SoftwareType,DateUTC
2013-06-08 00:01:00,51.8,-3.1,29.84,NE,45,6.9,11.4,1,0.03,,,0.00,WUHU216HW,2013-06-08 04:01:00,
2013-06-08 00:06:00,51.8,-3.1,29.83,NE,45,6.3,9.2,1,0.04,,,0.02,WUHU216HW,2013-06-08 04:06:00,
2013-06-08 00:11:00,51.8,-3.1,29.82,East,90,5.6,9.2,1,0.06,,,0.04,WUHU216HW,2013-06-08 04:11:00,
2013-06-08 00:16:00,51.8,-3.1,29.83,NW,315,4.5,9.2,1,0.08,,,0.06,WUHU216HW,2013-06-08 04:16:00,
2013-06-08 00:21:00,51.8,-3.1,29.83,East,90,3.6,5.8,1,0.09,,,0.07,WUHU216HW,2013-06-08 04:21:00,
2013-06-08 00:26:00,51.8,-3.1,29.83,North,0,4.3,6.9,1,0.09,,,0.07,WUHU216HW,2013-06-08 04:26:00,
2013-06-08 00:31:00,51.8,-3.1,29.83,NNE,23,1.1,6.9,1,0.09,,,0.07,WUHU216HW,2013-06-08 04:31:00,
2013-06-08 00:36:00,51.8,-3.1,29.82,NE,45,3.8,7.4,1,0.09,,,0.08,WUHU216HW,2013-06-08 04:36:00,
2013-06-08 00:41:00,51.8,-3.1,29.81,NNE,23,3.4,7.4,1,0.09,,,0.08,WUHU216HW,2013-06-08 04:41:00,
2013-06-08 00:46:00,51.8,-3.1,29.82,North,0,3.4,6.9,1,0.09,,,0.09,WUHU216HW,2013-06-08 04:46:00,
2013-06-08 00:52:00,51.8,-3.1,29.82,NNE,23,6.3,8.9,1,0.10,,,0.10,WUHU216HW,2013-06-08 04:52:00,
2013-06-08 00:57:00,51.8,-3.1,29.80,NNE,23,5.4,8.9,1,0.12,,,0.12,WUHU216HW,2013-06-08 04:57:00,
2013-06-08 01:02:00,51.8,-3.1,29.78,NE,45,6.3,10.5,1,0.13,,,0.14,WUHU216HW,2013-06-08 05:02:00,
2013-06-08 01:07:00,51.8,-3.1,29.79,NNE,23,6.5,10.5,1,0.13,,,0.15,WUHU216HW,2013-06-08 05:07:00,
2013-06-08 01:12:00,51.8,-3.1,29.78,ESE,113,5.4,10.5,1,0.10,,,0.16,WUHU216HW,2013-06-08 05:12:00,
2013-06-08 01:17:00,51.8,-3.1,29.77,NE,45,3.8,9.2,1,0.10,,,0.17,WUHU216HW,2013-06-08 05:17:00,
2013-06-08 01:22:00,51.8,-3.1,29.76,NNE,23,6.0,12.8,1,0.11,,,0.18,WUHU216HW,2013-06-08 05:22:00,
2013-06-08 01:27:00,51.8,-3.1,29.76,ESE,113,2.9,12.8,1,0.11,,,0.18,WUHU216HW,2013-06-08 05:27:00,
2013-06-08 01:32:00,51.8,-3.1,29.76,NNW,338,5.4,11.0,1,0.11,,,0.18,WUHU216HW,2013-06-08 05:32:00,
2013-06-08 01:37:00,51.8,-3.1,29.76,NE,45,1.8,6.9,1,0.10,,,0.18,WUHU216HW,2013-06-08 05:37:00,
2013-06-08 01:42:00,51.8,-3.1,29.77,ENE,68,4.7,7.8,1,0.10,,,0.19,WUHU216HW,2013-06-08 05:42:00,
2013-06-08 01:47:00,51.8,-3.1,29.77,ENE,68,1.6,7.8,1,0.11,,,0.20,WUHU216HW,2013-06-08 05:47:00,
2013-06-08 01:52:00,52.0,-2.9,29.76,NE,45,9.8,14.5,1,0.12,,,0.23,WUHU216HW,2013-06-08 05:52:00,
2013-06-08 01:57:00,51.8,-3.1,29.75,NE,45,5.8,14.5,1,0.16,,,0.29,WUHU216HW,2013-06-08 05:57:00,
2013-06-08 02:02:00,51.8,-3.1,29.75,East,90,2.9,13.4,1,0.18,,,0.33,WUHU216HW,2013-06-08 06:02:00,
2013-06-08 02:07:00,51.8,-3.1,29.75,NE,45,11.9,13.4,1,0.20,,,0.35,WUHU216HW,2013-06-08 06:07:00,
2013-06-08 02:12:00,52.0,-2.9,29.76,NE,45,4.7,11.9,1,0.20,,,0.37,WUHU216HW,2013-06-08 06:12:00,
2013-06-08 02:17:00,52.0,-2.9,29.75,NE,45,6.5,11.9,1,0.25,,,0.43,WUHU216HW,2013-06-08 06:17:00,
2013-06-08 02:22:00,52.0,-2.9,29.75,ENE,68,5.1,8.3,1,0.31,,,0.50,WUHU216HW,2013-06-08 06:22:00,
2013-06-08 02:27:00,52.0,-2.9,29.75,NE,45,1.8,6.9,1,0.35,,,0.53,WUHU216HW,2013-06-08 06:27:00,
2013-06-08 02:32:00,52.0,-2.9,29.75,NNE,23,5.8,11.9,1,0.41,,,0.59,WUHU216HW,2013-06-08 06:32:00,
2013-06-08 02:37:00,52.0,-2.9,29.74,North,0,3.8,11.9,1,0.46,,,0.64,WUHU216HW,2013-06-08 06:37:00,
2013-06-08 02:42:00,52.0,-2.9,29.74,NNE,23,6.9,6.9,1,0.47,,,0.66,WUHU216HW,2013-06-08 06:42:00,
2013-06-08 02:47:00,52.0,-2.9,29.74,NNE,23,6.5,6.9,1,0.48,,,0.68,WUHU216HW,2013-06-08 06:47:00,
2013-06-08 02:52:00,52.0,-2.9,29.73,North,0,7.6,7.6,1,0.43,,,0.72,WUHU216HW,2013-06-08 06:52:00,
2013-06-08 02:57:00,52.0,-2.9,29.72,ENE,68,8.7,10.5,1,0.43,,,0.74,WUHU216HW,2013-06-08 06:57:00,
2013-06-08 03:02:00,52.2,-2.8,29.71,North,0,6.0,10.5,1,0.43,,,0.75,WUHU216HW,2013-06-08 07:02:00,
2013-06-08 03:07:00,52.2,-2.8,29.71,ENE,68,7.6,8.9,1,0.42,,,0.77,WUHU216HW,2013-06-08 07:07:00,
2013-06-08 03:12:00,52.2,-2.8,29.69,NNE,23,11.0,11.0,1,0.41,,,0.78,WUHU216HW,2013-06-08 07:12:00,
2013-06-08 03:17:00,52.2,-2.8,29.70,NNW,338,1.3,11.0,1,0.33,,,0.79,WUHU216HW,2013-06-08 07:17:00,
2013-06-08 03:22:00,52.2,-2.8,29.70,NE,45,6.3,13.4,1,0.28,,,0.80,WUHU216HW,2013-06-08 07:22:00,
2013-06-08 03:27:00,52.2,-2.8,29.69,ENE,68,4.5,13.4,1,0.28,,,0.80,WUHU216HW,2013-06-08 07:27:00,
2013-06-08 03:32:00,52.2,-2.8,29.69,East,90,6.9,11.9,1,0.21,,,0.80,WUHU216HW,2013-06-08 07:32:00,
2013-06-08 03:37:00,52.2,-2.8,29.69,ENE,68,4.7,11.0,1,0.15,,,0.80,WUHU216HW,2013-06-08 07:37:00,
2013-06-08 03:42:00,52.2,-2.8,29.69,NE,45,3.4,9.6,1,0.14,,,0.80,WUHU216HW,2013-06-08 07:42:00,
2013-06-08 03:47:00,52.2,-2.8,29.69,NNE,23,7.6,10.5,1,0.12,,,0.80,WUHU216HW,2013-06-08 07:47:00,
2013-06-08 03:52:00,52.2,-2.8,29.69,ENE,68,6.3,10.5,1,0.07,,,0.80,WUHU216HW,2013-06-08 07:52:00,
2013-06-08 03:57:00,52.2,-2.8,29.69,NNW,338,6.3,8.9,1,0.05,,,0.80,WUHU216HW,2013-06-08 07:57:00,
2013-06-08 04:02:00,52.4,-2.6,29.68,NNE,23,8.1,12.5,1,0.05,,,0.81,WUHU216HW,2013-06-08 08:02:00,
2013-06-08 04:07:00,52.4,-2.6,29.67,ENE,68,2.0,12.5,1,0.06,,,0.83,WUHU216HW,2013-06-08 08:07:00,
2013-06-08 04:12:00,52.4,-2.6,29.68,SE,135,3.8,10.5,1,0.04,,,0.83,WUHU216HW,2013-06-08 08:12:00,
2013-06-08 04:17:00,52.4,-2.6,29.67,NNW,338,10.7,10.7,1,0.04,,,0.84,WUHU216HW,2013-06-08 08:17:00,
2013-06-08 04:22:00,52.4,-2.6,29.68,NE,45,3.8,10.7,1,0.04,,,0.84,WUHU216HW,2013-06-08 08:22:00,
2013-06-08 04:27:00,52.4,-2.6,29.68,NE,45,2.2,10.7,1,0.04,,,0.84,WUHU216HW,2013-06-08 08:27:00,
2013-06-08 04:32:00,52.4,-2.6,29.68,SE,135,2.5,8.3,1,0.04,,,0.84,WUHU216HW,2013-06-08 08:32:00,
2013-06-08 04:37:00,52.4,-2.6,29.68,SE,135,2.5,6.5,1,0.04,,,0.84,WUHU216HW,2013-06-08 08:37:00,
2013-06-08 05:00:00,52.6,-2.5,29.66,NNE,23,2.0,2.0,1,0.04,,,0.84,WUHU216HW,2013-06-08 09:00:00,
2013-06-08 05:05:00,52.6,-2.5,29.66,East,90,4.3,4.3,1,0.02,,,0.85,WUHU216HW,2013-06-08 09:05:00,
2013-06-08 05:10:00,52.6,-2.5,29.66,East,90,2.5,4.3,1,0.02,,,0.85,WUHU216HW,2013-06-08 09:10:00,
2013-06-08 05:15:00,52.7,-2.3,29.66,NE,45,3.1,9.8,1,0.01,,,0.85,WUHU216HW,2013-06-08 09:15:00,
2013-06-08 05:20:00,52.7,-2.3,29.65,North,0,5.8,9.8,1,0.01,,,0.85,WUHU216HW,2013-06-08 09:20:00,
2013-06-08 05:25:00,52.7,-2.3,29.65,ENE,68,6.0,6.3,1,0.02,,,0.86,WUHU216HW,2013-06-08 09:25:00,
2013-06-08 05:30:00,52.7,-2.3,29.65,ENE,68,3.8,8.5,1,0.02,,,0.86,WUHU216HW,2013-06-08 09:30:00,
2013-06-08 05:35:00,52.9,-2.1,29.65,NE,45,2.2,8.5,1,0.02,,,0.86,WUHU216HW,2013-06-08 09:35:00,
2013-06-08 05:40:00,52.9,-2.1,29.65,North,0,3.8,3.8,1,0.02,,,0.86,WUHU216HW,2013-06-08 09:40:00,
2013-06-08 05:45:00,52.9,-2.1,29.64,NNW,338,1.3,5.8,1,0.01,,,0.86,WUHU216HW,2013-06-08 09:45:00,
2013-06-08 05:50:00,52.9,-2.1,29.65,North,0,6.3,6.3,1,0.01,,,0.86,WUHU216HW,2013-06-08 09:50:00,
2013-06-08 05:55:00,52.9,-2.1,29.64,NE,45,3.6,6.3,1,0.01,,,0.86,WUHU216HW,2013-06-08 09:55:00,
2013-06-08 06:00:00,52.9,-2.1,29.64,NNW,338,1.3,6.3,1,0.01,,,0.86,WUHU216HW,2013-06-08 10:00:00,
2013-06-08 06:05:00,52.9,-2.1,29.64,ENE,68,4.7,4.7,1,0.01,,,0.86,WUHU216HW,2013-06-08 10:05:00,
2013-06-08 06:10:00,53.1,-2.1,29.64,NNE,23,9.2,9.2,1,0.01,,,0.86,WUHU216HW,2013-06-08 10:10:00,
2013-06-08 06:15:00,53.3,-1.9,29.64,NW,315,1.1,9.2,1,0.01,,,0.86,WUHU216HW,2013-06-08 10:15:00,
2013-06-08 06:20:00,53.3,-1.9,29.64,ENE,68,2.7,9.2,1,0.00,,,0.86,WUHU216HW,2013-06-08 10:20:00,
2013-06-08 06:25:00,53.3,-1.9,29.63,North,0,2.2,4.3,1,0.00,,,0.86,WUHU216HW,2013-06-08 10:25:00,
2013-06-08 06:30:00,53.3,-1.9,29.63,NE,45,3.4,4.7,1,0.00,,,0.86,WUHU216HW,2013-06-08 10:30:00,
2013-06-08 06:35:00,53.3,-1.9,29.63,ENE,68,1.6,4.7,1,0.00,,,0.86,WUHU216HW,2013-06-08 10:35:00,
2013-06-08 06:40:00,53.3,-1.9,29.63,NNW,338,4.0,4.5,1,0.00,,,0.86,WUHU216HW,2013-06-08 10:40:00,
2013-06-08 06:45:00,53.5,-1.8,29.63,NNW,338,3.4,6.5,1,0.00,,,0.86,WUHU216HW,2013-06-08 10:45:00,
2013-06-08 06:50:00,53.5,-1.8,29.63,North,0,2.7,6.5,1,0.00,,,0.86,WUHU216HW,2013-06-08 10:50:00,
2013-06-08 06:55:00,53.5,-1.8,29.63,NNW,338,8.3,9.8,1,0.00,,,0.86,WUHU216HW,2013-06-08 10:55:00,
2013-06-08 07:00:00,53.6,-1.6,29.62,NNW,338,5.4,9.8,1,0.00,,,0.86,WUHU216HW,2013-06-08 11:00:00,
2013-06-08 07:05:00,53.6,-1.6,29.63,ESE,113,1.1,8.3,1,0.00,,,0.86,WUHU216HW,2013-06-08 11:05:00,
2013-06-08 07:10:00,53.6,-1.6,29.63,NNW,338,5.8,12.5,1,0.00,,,0.86,WUHU216HW,2013-06-08 11:10:00,
2013-06-08 07:15:00,53.8,-1.4,29.62,ENE,68,6.5,12.5,1,0.00,,,0.86,WUHU216HW,2013-06-08 11:15:00,
2013-06-08 07:20:00,53.8,-1.4,29.63,SSE,158,1.3,6.5,1,0.00,,,0.86,WUHU216HW,2013-06-08 11:20:00,
2013-06-08 07:25:00,54.0,-1.3,29.63,NNW,338,1.8,6.5,1,0.00,,,0.86,WUHU216HW,2013-06-08 11:25:00,
2013-06-08 07:30:00,54.0,-1.3,29.63,NNW,338,0.7,4.7,1,0.00,,,0.86,WUHU216HW,2013-06-08 11:30:00,
2013-06-08 07:35:00,54.2,-1.2,29.63,WNW,293,1.8,4.7,1,0.01,,,0.87,WUHU216HW,2013-06-08 11:35:00,
2013-06-08 07:40:00,54.4,-1.1,29.63,WNW,293,2.9,4.7,1,0.01,,,0.87,WUHU216HW,2013-06-08 11:40:00,
2013-06-08 07:45:00,54.5,-0.9,29.62,North,0,0.4,4.7,1,0.01,,,0.87,WUHU216HW,2013-06-08 11:45:00,
2013-06-08 07:50:00,54.5,-0.9,29.62,NE,45,1.3,4.0,1,0.01,,,0.87,WUHU216HW,2013-06-08 11:50:00,
2013-06-08 07:55:00,54.7,-0.7,29.62,West,270,6.9,6.9,1,0.01,,,0.87,WUHU216HW,2013-06-08 11:55:00,
2013-06-08 08:00:00,54.7,-0.7,29.62,SW,225,3.4,6.9,1,0.01,,,0.87,WUHU216HW,2013-06-08 12:00:00,
2013-06-08 08:05:00,54.9,-0.6,29.62,North,0,4.0,6.9,1,0.01,,,0.87,WUHU216HW,2013-06-08 12:05:00,
2013-06-08 08:10:00,55.1,-0.4,29.61,NW,315,5.8,5.8,1,0.01,,,0.87,WUHU216HW,2013-06-08 12:10:00,
2013-06-08 08:15:00,54.9,-0.6,29.62,WNW,293,2.0,5.8,1,0.02,,,0.88,WUHU216HW,2013-06-08 12:15:00,
2013-06-08 08:20:00,55.1,-0.4,29.63,NW,315,7.6,7.6,1,0.02,,,0.88,WUHU216HW,2013-06-08 12:20:00,
2013-06-08 08:25:00,55.1,-0.4,29.63,NNW,338,1.1,7.6,1,0.02,,,0.88,WUHU216HW,2013-06-08 12:25:00,
2013-06-08 08:30:00,55.1,-0.4,29.63,WNW,293,8.1,8.1,1,0.02,,,0.88,WUHU216HW,2013-06-08 12:30:00,
2013-06-08 08:35:00,55.4,-0.2,29.63,North,0,2.5,8.1,1,0.01,,,0.88,WUHU216HW,2013-06-08 12:35:00,
2013-06-08 08:40:00,55.6,-0.1,29.63,North,0,4.3,8.1,1,0.01,,,0.88,WUHU216HW,2013-06-08 12:40:00,
2013-06-08 08:45:00,55.4,-0.2,29.63,North,0,2.5,7.4,1,0.01,,,0.88,WUHU216HW,2013-06-08 12:45:00,
2013-06-08 08:50:00,55.4,-0.2,29.64,NW,315,8.9,8.9,1,0.01,,,0.88,WUHU216HW,2013-06-08 12:50:00,
2013-06-08 08:55:00,55.8,0.1,29.65,WSW,248,3.1,8.9,1,0.01,,,0.88,WUHU216HW,2013-06-08 12:55:00,
2013-06-08 09:00:00,55.8,0.1,29.65,WNW,293,2.9,6.5,1,0.01,,,0.88,WUHU216HW,2013-06-08 13:00:00,
2013-06-08 09:05:00,56.2,0.4,29.65,WNW,293,5.4,6.0,1,0.01,,,0.88,WUHU216HW,2013-06-08 13:05:00,
2013-06-08 09:10:00,56.5,0.5,29.66,WSW,248,1.8,7.6,1,0.00,,,0.88,WUHU216HW,2013-06-08 13:10:00,
2013-06-08 09:15:00,56.5,0.5,29.66,WNW,293,1.1,7.6,1,0.00,,,0.88,WUHU216HW,2013-06-08 13:15:00,
2013-06-08 09:20:00,56.7,0.7,29.67,NW,315,7.6,8.5,1,0.00,,,0.88,WUHU216HW,2013-06-08 13:20:00,
2013-06-08 09:25:00,56.7,0.7,29.67,NNE,23,2.5,8.5,1,0.00,,,0.88,WUHU216HW,2013-06-08 13:25:00,
2013-06-08 09:30:00,56.9,0.8,29.67,West,270,4.9,7.6,1,0.00,,,0.88,WUHU216HW,2013-06-08 13:30:00,
2013-06-08 09:35:00,57.2,1.1,29.68,NW,315,1.8,6.5,1,0.00,,,0.88,WUHU216HW,2013-06-08 13:35:00,
2013-06-08 09:40:00,57.4,1.3,29.68,West,270,8.1,8.5,1,0.00,,,0.88,WUHU216HW,2013-06-08 13:40:00,
2013-06-08 09:45:00,57.6,1.4,29.68,West,270,3.1,8.5,1,0.00,,,0.88,WUHU216HW,2013-06-08 13:45:00,
2013-06-08 09:50:00,58.0,1.6,29.68,WNW,293,7.4,8.1,1,0.00,,,0.88,WUHU216HW,2013-06-08 13:50:00,
2013-06-08 09:55:00,58.3,2.0,29.68,WNW,293,2.5,7.4,1,0.00,,,0.88,WUHU216HW,2013-06-08 13:55:00,
2013-06-08 10:00:00,58.7,2.3,29.68,West,270,2.5,9.2,1,0.00,,,0.88,WUHU216HW,2013-06-08 14:00:00,
2013-06-08 10:05:00,59.4,2.8,29.69,WSW,248,4.0,9.2,1,0.00,,,0.88,WUHU216HW,2013-06-08 14:05:00,
2013-06-08 10:10:00,60.1,3.4,29.69,East,90,6.0,9.6,1,0.00,,,0.88,WUHU216HW,2013-06-08 14:10:00,
2013-06-08 10:15:00,60.3,3.5,29.69,West,270,9.8,9.8,1,0.00,,,0.88,WUHU216HW,2013-06-08 14:15:00,
2013-06-08 10:20:00,60.7,3.8,29.70,NNW,338,4.9,9.8,1,0.00,,,0.88,WUHU216HW,2013-06-08 14:20:00,
2013-06-08 10:25:00,60.8,4.0,29.70,NW,315,4.5,9.8,1,0.00,,,0.88,WUHU216HW,2013-06-08 14:25:00,
2013-06-08 10:30:00,61.0,4.2,29.70,WNW,293,8.9,8.9,1,0.00,,,0.88,WUHU216HW,2013-06-08 14:30:00,
2013-06-08 10:35:00,61.2,4.2,29.69,NW,315,2.0,8.9,1,0.00,,,0.88,WUHU216HW,2013-06-08 14:35:00,
2013-06-08 10:40:00,61.6,4.5,29.69,WNW,293,3.4,8.9,1,0.00,,,0.88,WUHU216HW,2013-06-08 14:40:00,
2013-06-08 10:45:00,62.3,5.1,29.70,WNW,293,2.5,7.8,1,0.00,,,0.88,WUHU216HW,2013-06-08 14:45:00,
2013-06-08 10:50:00,63.4,6.0,29.70,WNW,293,6.0,8.9,1,0.00,,,0.88,WUHU216HW,2013-06-08 14:50:00,
2013-06-08 10:55:00,63.7,6.1,29.70,NW,315,7.6,8.9,1,0.00,,,0.88,WUHU216HW,2013-06-08 14:55:00,
2013-06-08 11:00:00,64.4,6.7,29.70,WNW,293,3.6,8.5,1,0.00,,,0.88,WUHU216HW,2013-06-08 15:00:00,
2013-06-08 11:05:00,65.5,7.6,29.70,West,270,7.2,14.3,1,0.00,,,0.88,WUHU216HW,2013-06-08 15:05:00,
2013-06-08 11:10:00,66.1,7.9,29.70,WNW,293,2.2,14.3,1,0.00,,,0.88,WUHU216HW,2013-06-08 15:10:00,
2013-06-08 11:15:00,66.6,8.4,29.70,NW,315,3.4,8.1,1,0.00,,,0.88,WUHU216HW,2013-06-08 15:15:00,
2013-06-08 11:20:00,67.3,9.0,29.71,WNW,293,5.4,9.4,1,0.00,,,0.88,WUHU216HW,2013-06-08 15:20:00,
2013-06-08 11:25:00,67.9,9.4,29.71,WNW,293,2.5,9.4,1,0.00,,,0.88,WUHU216HW,2013-06-08 15:25:00,
2013-06-08 11:30:00,67.9,9.4,29.71,NNW,338,3.1,8.3,1,0.00,,,0.88,WUHU216HW,2013-06-08 15:30:00,
2013-06-08 11:35:00,67.9,9.4,29.72,NW,315,6.9,6.9,1,0.00,,,0.88,WUHU216HW,2013-06-08 15:35:00,
2013-06-08 11:40:00,68.0,9.5,29.72,NW,315,5.4,7.2,1,0.00,,,0.88,WUHU216HW,2013-06-08 15:40:00,
2013-06-08 11:45:00,68.2,9.6,29.72,NW,315,11.0,11.0,1,0.00,,,0.88,WUHU216HW,2013-06-08 15:45:00,
2013-06-08 11:50:00,68.6,9.9,29.72,WNW,293,4.7,11.0,1,0.00,,,0.88,WUHU216HW,2013-06-08 15:50:00,
2013-06-08 11:55:00,68.8,10.1,29.73,WSW,248,3.1,11.0,1,0.00,,,0.88,WUHU216HW,2013-06-08 15:55:00,
2013-06-08 12:00:00,69.1,10.3,29.73,WSW,248,7.6,10.5,1,0.00,,,0.88,WUHU216HW,2013-06-08 16:00:00,
2013-06-08 12:05:00,69.7,10.7,29.73,West,270,10.3,10.5,1,0.00,,,0.88,WUHU216HW,2013-06-08 16:05:00,
2013-06-08 12:10:00,70.0,11.0,29.73,NNW,338,9.8,11.2,1,0.00,,,0.88,WUHU216HW,2013-06-08 16:10:00,
2013-06-08 12:15:00,70.2,11.1,29.73,West,270,3.4,11.2,1,0.00,,,0.88,WUHU216HW,2013-06-08 16:15:00,
2013-06-08 12:20:00,70.2,11.1,29.73,West,270,7.6,11.9,1,0.00,,,0.88,WUHU216HW,2013-06-08 16:20:00,
2013-06-08 12:25:00,70.7,11.5,29.73,SSW,203,6.3,11.9,1,0.00,,,0.88,WUHU216HW,2013-06-08 16:25:00,
2013-06-08 12:30:00,70.9,11.7,29.73,SE,135,3.6,12.5,1,0.00,,,0.88,WUHU216HW,2013-06-08 16:30:00,
2013-06-08 12:35:00,71.6,12.2,29.74,SSW,203,3.1,12.5,1,0.00,,,0.88,WUHU216HW,2013-06-08 16:35:00,
2013-06-08 12:40:00,72.5,13.0,29.74,WSW,248,7.2,11.0,1,0.00,,,0.88,WUHU216HW,2013-06-08 16:40:00,
2013-06-08 12:45:00,72.4,12.8,29.74,North,0,1.8,13.2,1,0.00,,,0.88,WUHU216HW,2013-06-08 16:45:00,
2013-06-08 12:50:00,72.4,12.8,29.75,West,270,7.6,13.2,1,0.00,,,0.88,WUHU216HW,2013-06-08 16:50:00,
2013-06-08 12:55:00,72.4,12.8,29.75,West,270,12.1,12.1,1,0.00,,,0.88,WUHU216HW,2013-06-08 16:55:00,
2013-06-08 13:00:00,72.4,12.8,29.75,WSW,248,5.4,12.1,1,0.00,,,0.88,WUHU216HW,2013-06-08 17:00:00,
2013-06-08 13:05:00,72.9,13.2,29.75,WNW,293,3.8,12.1,1,0.00,,,0.88,WUHU216HW,2013-06-08 17:05:00,
2013-06-08 13:11:00,72.9,13.2,29.75,SW,225,7.6,10.1,1,0.00,,,0.88,WUHU216HW,2013-06-08 17:11:00,
2013-06-08 13:16:00,72.5,13.0,29.75,NNE,23,4.3,10.1,1,0.00,,,0.88,WUHU216HW,2013-06-08 17:16:00,
2013-06-08 13:21:00,72.7,13.2,29.75,West,270,6.5,16.3,1,0.00,,,0.88,WUHU216HW,2013-06-08 17:21:00,
2013-06-08 13:26:00,72.7,13.2,29.75,WNW,293,3.1,16.3,1,0.00,,,0.88,WUHU216HW,2013-06-08 17:26:00,
2013-06-08 13:31:00,73.1,13.4,29.75,West,270,2.5,13.4,1,0.00,,,0.88,WUHU216HW,2013-06-08 17:31:00,
2013-06-08 13:36:00,73.8,14.0,29.75,SW,225,4.9,9.2,1,0.00,,,0.88,WUHU216HW,2013-06-08 17:36:00,
2013-06-08 13:41:00,74.0,14.0,29.75,NW,315,4.5,8.3,1,0.00,,,0.88,WUHU216HW,2013-06-08 17:41:00,
2013-06-08 13:46:00,74.2,14.2,29.75,NW,315,4.7,9.8,1,0.00,,,0.88,WUHU216HW,2013-06-08 17:46:00,
2013-06-08 13:51:00,74.5,14.4,29.75,West,270,4.5,9.8,1,0.00,,,0.88,WUHU216HW,2013-06-08 17:51:00,
2013-06-08 13:56:00,74.9,14.7,29.76,WNW,293,8.9,8.9,1,0.00,,,0.88,WUHU216HW,2013-06-08 17:56:00,
2013-06-08 14:01:00,75.2,14.9,29.76,South,180,4.0,9.2,1,0.00,,,0.88,WUHU216HW,2013-06-08 18:01:00,
2013-06-08 14:06:00,75.6,15.2,29.76,NNW,338,7.4,9.2,1,0.00,,,0.88,WUHU216HW,2013-06-08 18:06:00,
2013-06-08 14:11:00,76.0,15.5,29.76,WSW,248,6.5,13.6,1,0.00,,,0.88,WUHU216HW,2013-06-08 18:11:00,
2013-06-08 14:16:00,76.7,16.1,29.76,WNW,293,9.4,13.6,1,0.00,,,0.88,WUHU216HW,2013-06-08 18:16:00,
2013-06-08 14:21:00,76.7,16.1,29.77,WNW,293,8.7,10.3,1,0.00,,,0.88,WUHU216HW,2013-06-08 18:21:00,
2013-06-08 14:26:00,77.0,16.4,29.77,West,270,5.8,9.4,1,0.00,,,0.88,WUHU216HW,2013-06-08 18:26:00,
2013-06-08 14:31:00,77.4,16.7,29.77,West,270,5.1,8.7,1,0.00,,,0.88,WUHU216HW,2013-06-08 18:31:00,
2013-06-08 14:36:00,77.0,16.4,29.77,SW,225,5.6,7.6,1,0.00,,,0.88,WUHU216HW,2013-06-08 18:36:00,
2013-06-08 14:41:00,76.7,16.1,29.77,WSW,248,4.7,8.7,1,0.00,,,0.88,WUHU216HW,2013-06-08 18:41:00,
2013-06-08 14:46:00,76.9,16.2,29.78,NNE,23,1.6,8.7,1,0.00,,,0.88,WUHU216HW,2013-06-08 18:46:00,
2013-06-08 14:51:00,77.2,16.5,29.78,NW,315,3.6,6.7,1,0.00,,,0.88,WUHU216HW,2013-06-08 18:51:00,
2013-06-08 14:56:00,77.6,16.7,29.77,SW,225,4.7,6.0,1,0.00,,,0.88,WUHU216HW,2013-06-08 18:56:00,
2013-06-08 15:01:00,77.2,16.5,29.78,WSW,248,1.8,8.5,1,0.00,,,0.88,WUHU216HW,2013-06-08 19:01:00,
2013-06-08 15:06:00,76.9,16.2,29.78,WSW,248,2.2,8.5,1,0.00,,,0.88,WUHU216HW,2013-06-08 19:06:00,
2013-06-08 15:11:00,77.2,16.5,29.78,West,270,0.9,4.5,1,0.00,,,0.88,WUHU216HW,2013-06-08 19:11:00,
2013-06-08 15:16:00,77.8,16.9,29.78,WSW,248,6.0,6.0,1,0.00,,,0.88,WUHU216HW,2013-06-08 19:16:00,
2013-06-08 15:21:00,77.8,16.9,29.78,West,270,4.3,6.0,1,0.00,,,0.88,WUHU216HW,2013-06-08 19:21:00,
2013-06-08 15:26:00,77.6,16.7,29.78,WSW,248,4.3,8.9,1,0.00,,,0.88,WUHU216HW,2013-06-08 19:26:00,
2013-06-08 15:31:00,77.4,16.7,29.78,South,180,1.8,8.9,1,0.00,,,0.88,WUHU216HW,2013-06-08 19:31:00,
2013-06-08 15:36:00,77.9,17.0,29.78,WSW,248,2.2,4.3,1,0.00,,,0.88,WUHU216HW,2013-06-08 19:36:00,
2013-06-08 15:41:00,78.1,17.1,29.78,NNW,338,2.0,4.7,1,0.00,,,0.88,WUHU216HW,2013-06-08 19:41:00,
2013-06-08 15:46:00,77.6,16.7,29.79,West,270,2.0,4.7,1,0.00,,,0.88,WUHU216HW,2013-06-08 19:46:00,
2013-06-08 15:51:00,77.2,16.5,29.79,West,270,1.8,4.7,1,0.00,,,0.88,WUHU216HW,2013-06-08 19:51:00,
2013-06-08 15:56:00,77.4,16.7,29.79,WNW,293,2.9,6.5,1,0.00,,,0.88,WUHU216HW,2013-06-08 19:56:00,
2013-06-08 16:01:00,78.7,17.6,29.80,West,270,3.4,6.5,1,0.00,,,0.88,WUHU216HW,2013-06-08 20:01:00,
2013-06-08 16:06:00,78.8,17.6,29.80,WNW,293,5.4,7.2,1,0.00,,,0.88,WUHU216HW,2013-06-08 20:06:00,
2013-06-08 16:11:00,78.1,17.1,29.80,WSW,248,5.4,7.2,1,0.00,,,0.88,WUHU216HW,2013-06-08 20:11:00,
2013-06-08 16:16:00,78.1,17.1,29.80,NNW,338,3.1,5.4,1,0.00,,,0.88,WUHU216HW,2013-06-08 20:16:00,
2013-06-08 16:21:00,77.6,16.7,29.80,NNW,338,5.4,6.7,1,0.00,,,0.88,WUHU216HW,2013-06-08 20:21:00,
2013-06-08 16:26:00,77.2,16.5,29.80,WSW,248,4.0,6.7,1,0.00,,,0.88,WUHU216HW,2013-06-08 20:26:00,
2013-06-08 16:31:00,77.2,16.5,29.81,West,270,3.8,5.4,1,0.00,,,0.88,WUHU216HW,2013-06-08 20:31:00,
2013-06-08 16:36:00,77.0,16.4,29.81,WNW,293,7.8,7.8,1,0.00,,,0.88,WUHU216HW,2013-06-08 20:36:00,
2013-06-08 16:41:00,76.5,15.9,29.81,NW,315,2.5,7.8,1,0.00,,,0.88,WUHU216HW,2013-06-08 20:41:00,
2013-06-08 16:46:00,76.5,15.9,29.81,SW,225,4.5,7.8,1,0.00,,,0.88,WUHU216HW,2013-06-08 20:46:00,
2013-06-08 16:51:00,76.7,16.1,29.81,WNW,293,2.5,7.4,1,0.00,,,0.88,WUHU216HW,2013-06-08 20:51:00,
2013-06-08 16:56:00,77.0,16.4,29.82,SW,225,2.5,7.4,1,0.00,,,0.88,WUHU216HW,2013-06-08 20:56:00,
2013-06-08 17:01:00,77.2,16.5,29.82,West,270,3.1,7.6,1,0.00,,,0.88,WUHU216HW,2013-06-08 21:01:00,
2013-06-08 17:06:00,76.7,16.1,29.82,SW,225,3.6,7.6,1,0.00,,,0.88,WUHU216HW,2013-06-08 21:06:00,
2013-06-08 17:12:00,76.1,15.7,29.82,WNW,293,7.4,7.4,1,0.00,,,0.88,WUHU216HW,2013-06-08 21:12:00,
2013-06-08 17:17:00,75.6,15.2,29.83,WNW,293,3.4,7.4,1,0.00,,,0.88,WUHU216HW,2013-06-08 21:17:00,
2013-06-08 17:22:00,75.2,14.9,29.83,WNW,293,3.1,7.4,1,0.00,,,0.88,WUHU216HW,2013-06-08 21:22:00,
2013-06-08 17:27:00,75.1,14.9,29.83,NW,315,6.0,6.0,1,0.00,,,0.88,WUHU216HW,2013-06-08 21:27:00,
2013-06-08 17:32:00,74.9,14.7,29.84,WSW,248,1.3,6.3,1,0.00,,,0.88,WUHU216HW,2013-06-08 21:32:00,
2013-06-08 17:37:00,74.3,14.3,29.84,NW,315,4.3,7.6,1,0.00,,,0.88,WUHU216HW,2013-06-08 21:37:00,
2013-06-08 17:42:00,73.8,14.0,29.84,WSW,248,1.8,7.6,1,0.00,,,0.88,WUHU216HW,2013-06-08 21:42:00,
2013-06-08 17:47:00,73.6,13.8,29.84,West,270,1.6,7.2,1,0.00,,,0.88,WUHU216HW,2013-06-08 21:47:00,
2013-06-08 17:52:00,73.3,13.5,29.84,WNW,293,1.8,3.4,1,0.00,,,0.88,WUHU216HW,2013-06-08 21:52:00,
2013-06-08 17:57:00,73.1,13.4,29.85,West,270,1.3,3.4,1,0.00,,,0.88,WUHU216HW,2013-06-08 21:57:00,
2013-06-08 18:02:00,72.7,13.2,29.85,West,270,4.0,4.0,1,0.00,,,0.88,WUHU216HW,2013-06-08 22:02:00,
2013-06-08 18:07:00,72.5,13.0,29.85,West,270,2.0,4.5,1,0.00,,,0.88,WUHU216HW,2013-06-08 22:07:00,
2013-06-08 18:12:00,72.4,12.8,29.86,West,270,4.9,4.9,1,0.00,,,0.88,WUHU216HW,2013-06-08 22:12:00,
2013-06-08 18:17:00,72.2,12.7,29.86,NNW,338,5.6,5.6,1,0.00,,,0.88,WUHU216HW,2013-06-08 22:17:00,
2013-06-08 18:22:00,72.2,12.7,29.86,South,180,1.6,5.6,1,0.00,,,0.88,WUHU216HW,2013-06-08 22:22:00,
2013-06-08 18:27:00,72.2,12.7,29.86,West,270,2.0,5.6,1,0.00,,,0.88,WUHU216HW,2013-06-08 22:27:00,
2013-06-08 18:32:00,72.0,12.5,29.86,WSW,248,6.7,6.7,1,0.00,,,0.88,WUHU216HW,2013-06-08 22:32:00,
2013-06-08 18:37:00,72.0,12.5,29.87,WNW,293,3.8,6.7,1,0.00,,,0.88,WUHU216HW,2013-06-08 22:37:00,
2013-06-08 18:42:00,71.6,12.2,29.87,SSW,203,2.7,6.7,1,0.00,,,0.88,WUHU216HW,2013-06-08 22:42:00,
2013-06-08 18:47:00,71.6,12.2,29.87,WSW,248,3.1,8.5,1,0.00,,,0.88,WUHU216HW,2013-06-08 22:47:00,
2013-06-08 18:52:00,71.3,12.0,29.87,WNW,293,5.8,8.5,1,0.00,,,0.88,WUHU216HW,2013-06-08 22:52:00,
2013-06-08 18:57:00,71.1,11.8,29.88,WNW,293,4.7,5.8,1,0.00,,,0.88,WUHU216HW,2013-06-08 22:57:00,
2013-06-08 19:02:00,70.9,11.7,29.88,WNW,293,5.4,5.4,1,0.00,,,0.88,WUHU216HW,2013-06-08 23:02:00,
2013-06-08 19:07:00,70.7,11.5,29.88,SW,225,2.2,5.4,1,0.00,,,0.88,WUHU216HW,2013-06-08 23:07:00,
2013-06-08 19:12:00,70.6,11.3,29.88,West,270,1.3,5.4,1,0.00,,,0.88,WUHU216HW,2013-06-08 23:12:00,
2013-06-08 19:17:00,70.6,11.3,29.88,West,270,2.5,2.5,1,0.00,,,0.88,WUHU216HW,2013-06-08 23:17:00,
2013-06-08 19:22:00,70.2,11.1,29.88,West,270,0.4,3.1,1,0.00,,,0.88,WUHU216HW,2013-06-08 23:22:00,
2013-06-08 19:27:00,69.8,10.8,29.89,WSW,248,1.1,3.1,1,0.00,,,0.88,WUHU216HW,2013-06-08 23:27:00,
2013-06-08 19:32:00,69.3,10.5,29.89,WNW,293,2.2,2.2,1,0.00,,,0.88,WUHU216HW,2013-06-08 23:32:00,
2013-06-08 19:37:00,68.9,10.2,29.89,SW,225,2.2,2.2,1,0.00,,,0.88,WUHU216HW,2013-06-08 23:37:00,
2013-06-08 19:42:00,68.8,10.1,29.89,SW,225,2.5,3.8,1,0.00,,,0.88,WUHU216HW,2013-06-08 23:42:00,
2013-06-08 19:47:00,68.4,9.8,29.90,WNW,293,2.7,3.8,1,0.00,,,0.88,WUHU216HW,2013-06-08 23:47:00,
2013-06-08 19:52:00,68.0,9.5,29.90,WSW,248,0.2,2.7,1,0.00,,,0.88,WUHU216HW,2013-06-08 23:52:00,
2013-06-08 19:57:00,67.9,9.4,29.90,WSW,248,1.8,2.7,1,0.00,,,0.88,WUHU216HW,2013-06-08 23:57:00,
2013-06-08 20:02:00,67.5,9.1,29.90,SSW,203,1.6,1.8,1,0.00,,,0.88,WUHU216HW,2013-06-09 00:02:00,
2013-06-08 20:07:00,67.1,8.8,29.90,SE,135,0.2,1.8,1,0.00,,,0.88,WUHU216HW,2013-06-09 00:07:00,
2013-06-08 20:12:00,66.8,8.6,29.90,WNW,293,0.0,1.6,1,0.00,,,0.88,WUHU216HW,2013-06-09 00:12:00,
2013-06-08 20:17:00,66.6,8.4,29.90,WNW,293,0.9,0.9,1,0.00,,,0.88,WUHU216HW,2013-06-09 00:17:00,
2013-06-08 20:22:00,66.2,8.1,29.89,NNW,338,0.2,0.9,1,0.00,,,0.88,WUHU216HW,2013-06-09 00:22:00,
2013-06-08 20:27:00,66.1,7.9,29.90,NNW,338,0.0,0.9,1,0.00,,,0.88,WUHU216HW,2013-06-09 00:27:00,
2013-06-08 20:32:00,65.9,7.8,29.90,West,270,0.4,0.4,1,0.00,,,0.88,WUHU216HW,2013-06-09 00:32:00,
2013-06-08 20:33:00,65.7,7.7,29.90,WSW,248,0.2,0.2,1,0.00,,,0.88,WUHU216HW,2013-06-09 00:33:00,
2013-06-08 20:37:00,65.7,7.7,29.90,WSW,248,0.2,0.4,1,0.00,,,0.88,WUHU216HW,2013-06-09 00:37:00,
2013-06-08 20:42:00,65.7,7.7,29.90,WSW,248,0.2,0.4,1,0.00,,,0.88,WUHU216HW,2013-06-09 00:42:00,
2013-06-08 21:00:00,64.6,6.9,29.90,West,270,2.5,2.5,1,0.00,,,0.88,WUHU216HW,2013-06-09 01:00:00,
2013-06-08 21:05:00,64.4,6.7,29.91,SSW,203,2.5,4.7,1,0.00,,,0.88,WUHU216HW,2013-06-09 01:05:00,
2013-06-08 21:10:00,64.3,6.6,29.91,WNW,293,2.0,4.7,1,0.00,,,0.88,WUHU216HW,2013-06-09 01:10:00,
2013-06-08 21:15:00,64.3,6.6,29.91,SW,225,0.2,2.5,1,0.00,,,0.88,WUHU216HW,2013-06-09 01:15:00,
2013-06-08 21:20:00,64.3,6.6,29.92,SW,225,0.4,2.0,1,0.00,,,0.88,WUHU216HW,2013-06-09 01:20:00,
2013-06-08 21:25:00,64.3,6.6,29.92,SW,225,0.4,0.7,1,0.00,,,0.88,WUHU216HW,2013-06-09 01:25:00,
2013-06-08 21:30:00,64.3,6.6,29.92,SW,225,0.4,0.4,1,0.00,,,0.88,WUHU216HW,2013-06-09 01:30:00,
2013-06-08 22:00:00,63.2,5.8,29.93,SW,225,1.1,1.1,1,0.00,,,0.88,WUHU216HW,2013-06-09 02:00:00,
2013-06-08 22:05:00,63.4,6.0,29.93,SE,135,1.1,1.6,1,0.00,,,0.88,WUHU216HW,2013-06-09 02:05:00,
2013-06-08 22:10:00,63.2,5.8,29.93,West,270,2.7,2.7,1,0.00,,,0.88,WUHU216HW,2013-06-09 02:10:00,
2013-06-08 22:15:00,63.0,5.7,29.93,SW,225,0.4,3.4,1,0.00,,,0.88,WUHU216HW,2013-06-09 02:15:00,
2013-06-08 22:16:00,63.0,5.7,29.94,South,180,0.9,0.9,1,0.00,,,0.88,WUHU216HW,2013-06-09 02:16:00,
2013-06-08 22:19:00,63.0,5.7,29.94,South,180,0.9,3.4,1,0.00,,,0.88,WUHU216HW,2013-06-09 02:19:00,
2013-06-08 22:24:00,63.0,5.7,29.94,South,180,0.9,0.9,1,0.00,,,0.88,WUHU216HW,2013-06-09 02:24:00,
2013-06-08 23:00:00,62.1,5.0,29.95,West,270,1.8,1.8,1,0.00,,,0.88,WUHU216HW,2013-06-09 03:00:00,
2013-06-08 23:05:00,62.6,5.4,29.95,WSW,248,2.0,2.2,1,0.00,,,0.88,WUHU216HW,2013-06-09 03:05:00,
2013-06-08 23:10:00,62.6,5.4,29.95,WSW,248,1.1,3.4,1,0.00,,,0.88,WUHU216HW,2013-06-09 03:10:00,
2013-06-08 23:15:00,62.5,5.2,29.96,WSW,248,1.3,3.4,1,0.00,,,0.88,WUHU216HW,2013-06-09 03:15:00,
2013-06-08 23:20:00,62.5,5.2,29.96,West,270,1.8,1.8,1,0.00,,,0.88,WUHU216HW,2013-06-09 03:20:00,
2013-06-08 23:25:00,62.5,5.2,29.96,West,270,1.8,1.8,1,0.00,,,0.88,WUHU216HW,2013-06-09 03:25:00,